Starlink 31753

operational
NORAD ID: 59484 Int'l Des: 2024-071 Owner: SPXS Country: US Constellation: starlink
LEOCIRCULAR

关于 Starlink 31753

正在加载描述...

实时位置

正在加载3D地球...

即将过境

高度历史

Altitude vs Time

uPlot chart will show altitude changes over time

两行轨道根数

1 59484U 24071A 25259.23159462 .00000579 00000-0 30561-4 0 9999
2 59484 43.0034 245.0656 0001251 270.8702 89.2006 15.27583272 81522
Epoch: Sep 16, 2025 • Age: 9 hours

当前状态

高度 483.5 km
速度 7.63 km/s
星下点 -5.22°S, 17.35°E
发射日期 Apr 13, 2024
运行时间 1.4 years
类型 internet

技术详情

分类 Payload
质量 730.00 kg
干质量 700.00 kg
总质量 730.00 kg
长度 0.30 m
直径 4.10 m
跨度 29.00 m
形状 Box + pan
制造商 SPXS
平台类型 Starlink V2M
阶段状态 In Orbit
所有者/国家 SPXS/US

大型星座

Loading constellations...